Location: Klein M�hlingen
(51.9472°N, 11.7453°E)
Time: 02:20:41
(UTC+00:00)

Envisat - Visible Passes

Search period start: 27 September 2021 00:00
Search period end: 07 October 2021 00:00
Orbit: 764 x 766 km, 98.2° (Epoch: 26 September)

Date Brightness Start Highest point End Pass type
(mag) Time Alt. Az. Time Alt. Az. Time Alt. Az.
27 Sep 6.3 02:46:36 10° ENE 02:47:33 10° E 02:48:30 10° E visible
27 Sep 3.6 04:22:31 10° NNE 04:27:36 65° ESE 04:32:38 10° S visible
28 Sep 4.9 03:45:57 10° NNE 03:50:33 33° E 03:55:08 10° SSE visible
29 Sep 5.9 03:09:57 10° NE 03:13:18 17° E 03:16:38 10° SE visible
30 Sep 3.9 04:11:03 10° NNE 04:16:03 53° E 04:21:01 10° S visible
01 Oct 5.2 03:34:36 10° NE 03:38:56 27° E 03:43:14 10° SSE visible
02 Oct 6.0 02:58:57 10° NE 03:01:37 14° E 03:04:17 10° ESE visible
02 Oct 3.1 04:36:19 10° NNE 04:41:27 84° ESE 04:46:33 10° SSW visible
03 Oct 4.3 03:59:37 10° NNE 04:04:29 43° E 04:09:18 10° S visible
04 Oct 5.5 03:23:19 10° NE 03:27:18 23° E 03:31:16 10° SE visible
05 Oct 6.2 02:48:21 10° ENE 02:49:55 11° E 02:51:30 10° E visible
05 Oct 3.4 04:24:49 10° NNE 04:29:55 69° ESE 04:34:59 10° S visible
06 Oct 4.7 03:48:12 10° NNE 03:52:53 35° E 03:57:31 10° SSE visible
